This demonstration page uses our WeatherBlox Daily Observations layout. Learn more.

Left ArrowRight Arrow

38.20091, -84.87328

Hourly Observations for August 1, 2018

Temp ( °F °C ) Dew Point ( °F °C ) Humidity (%) Winds ( mph kmh ) Pressure ( in mb ) Visibility ( mi km ) Precip ( " mm )
12:53 am 00:53 Clear 70 21.1 66 18.9 87 87 Calm 29.92 1013 10 16 0.00 0.00
1:53 am 01:53 Clear 69 20.6 66 18.9 90 90 Calm 29.92 1013 10 16 0.00 0.00
2:53 am 02:53 Clear 69 20.6 66 18.9 90 90 Calm 29.92 1013 10 16 0.00 0.00
3:53 am 03:53 Mostly Cloudy 70 21.1 67 19.4 90 90 SSE 7 11 29.93 1014 10 16 0.00 0.00
4:53 am 04:53 Mostly Cloudy 70 21.1 67 19.4 90 90 S 5 7 29.95 1014 10 16 0.00 0.00
5:36 am 05:36 Mostly Cloudy 69 20.6 67 19.4 93 93 SSE 5 7 29.94 1014 10 16 0.00 0.00
5:53 am 05:53 Mostly Cloudy with Light Rain 69 20.6 67 19.4 93 93 SSW 5 7 29.95 1014 10 16 0.00 0.03
6:53 am 06:53 Mostly Cloudy with Light Rain 69 20.6 67 19.4 93 93 SSW 3 6 29.96 1014 6 10 0.03 0.76
7:37 am 07:37 Mostly Cloudy with Mist and Fog 69 20.6 67 19.4 93 93 SSE 7 11 29.97 1015 5 8 0.01 0.25
7:53 am 07:53 Mostly Cloudy with Mist and Fog 69 20.6 67 19.4 93 93 SSE 7 11 29.97 1015 6 10 0.01 0.25
8:53 am 08:53 Cloudy 70 21.1 68 20 93 93 S 5 7 29.99 1016 7 11 0.01 0.25
9:05 am 09:05 Cloudy 70 21.1 68 20 93 93 S 5 7 29.97 1015 8 13 0.00 0.00
9:40 am 09:40 Mostly Cloudy 71 21.7 68 20 90 90 VRB 3 6 29.97 1015 10 16 0.00 0.00
9:53 am 09:53 Cloudy 71 21.7 68 20 90 90 SE 6 9 29.99 1016 10 16 0.00 0.00
10:03 am 10:03 Mostly Cloudy 72 22.2 68 20 87 87 SSE 6 9 30.00 1016 10 16 0.00 0.00
10:50 am 10:50 Mostly Cloudy 73 23 68 20 83 83 VRB 3 6 29.97 1015 10 16 0.00 0.00
10:53 am 10:53 Mostly Cloudy 74 23.3 68 20 82 82 Calm 29.99 1016 10 16 0.00 0.00
11:33 am 11:33 Partly Cloudy 75 23.9 68 20 79 79 Calm 30.00 1016 10 16 0.00 0.00
11:53 am 11:53 Mostly Cloudy 75 23.9 69 20.6 82 82 SSE 5 7 30.00 1016 10 16 0.00 0.00
12:17 pm 12:17 Cloudy 75 23.9 69 20.6 82 82 SE 6 9 30.00 1016 10 16 0.00 0.00
12:30 pm 12:30 Cloudy 74 23.3 69 20.6 85 85 ESE 8 13 29.97 1015 10 16 0.00 0.00
12:41 pm 12:41 Cloudy 74 23.3 68 20 82 82 SSE 10 17 30.00 1016 10 16 0.00 0.00
12:53 pm 12:53 Cloudy with Light Rain 74 23.3 67 19.4 79 79 SSE 8 13 30.01 1016 10 16 0.00 0.03
1:45 pm 13:45 Cloudy with Light Rain 75 23.9 69 20.6 82 82 Calm 30.00 1016 9 14 0.00 0.03
1:53 pm 13:53 Cloudy with Light Rain 74 23.3 69 20.6 85 85 Calm 30.00 1016 8 13 0.00 0.03
2:00 pm 14:00 Cloudy with Light Rain 74 23.3 69 20.6 85 85 SSE 6 9 30.00 1016 9 14 0.00 0.03
2:49 pm 14:49 Cloudy 75 24 70 21 83 83 NNW 6 9 29.97 1015 10 16 0.00 0.03
2:53 pm 14:53 Cloudy 74 23.3 70 21.1 88 88 NNW 7 11 29.99 1016 10 16 0.00 0.03
3:00 pm 15:00 Cloudy 74 23.3 70 21.1 88 88 N 5 7 29.97 1015 10 16 0.00 0.00
3:18 pm 15:18 Mostly Cloudy 74 23.3 70 21.1 88 88 NW 6 9 29.97 1015 10 16 0.00 0.00
3:43 pm 15:43 Cloudy with Light Rain 73 22.8 70 21.1 90 90 NW 5 7 29.97 1015 5 8 0.01 0.25
3:53 pm 15:53 Cloudy with Light Rain 73 22.8 70 21.1 90 90 WNW 3 6 29.99 1016 5 8 0.02 0.51
4:53 pm 16:53 Cloudy 74 23.3 67 19.4 79 79 Calm 29.97 1015 10 16 0.00 0.03
5:53 pm 17:53 Sunny 74 23.3 69 20.6 85 85 Calm 29.99 1016 10 16 0.00 0.00
6:53 pm 18:53 Mostly Sunny 74 23.3 69 20.6 85 85 Calm 29.98 1015 10 16 0.00 0.00
7:53 pm 19:53 Sunny 73 22.8 70 21.1 90 90 Calm 29.98 1015 10 16 0.00 0.00
8:38 pm 20:38 Mostly Cloudy 73 22.8 70 21.1 90 90 Calm 29.97 1015 10 16 0.00 0.00
8:53 pm 20:53 Mostly Cloudy 72 22.2 69 20.6 91 91 SE 5 7 29.99 1016 9 14 0.00 0.00
9:53 pm 21:53 Mostly Cloudy 71 21.7 69 20.6 94 94 ESE 3 6 30.01 1016 9 14 0.00 0.00
10:53 pm 22:53 Mostly Clear 71 21.7 68 20 90 90 Calm 30.01 1016 10 16 0.00 0.00
11:53 pm 23:53 Clear 70 21.1 67 19.4 90 90 Calm 30.02 1017 9 14 0.00 0.00

Powered by AerisWeather